Regional Weather Roundup
Issued by NWS

Home | Current Version | Previous Version | Graphics & Text | Print | Product List | Glossary On
Versions: 1 2 3 4 5 6 7 8 9 10 11 12 13 14 15 16 17 18 19 20 21 22 23 24 25 26 27 28 29 30 31 32 33 34 35 36 37 38 39 40 41 42 43 44 45 46 47 48 49 50
322
ASUS45 KSLC 290510
RWRUT

UTAH REGIONAL WEATHER ROUNDUP
NATIONAL WEATHER SERVICE SALT LAKE CITY UT
1100 PM MDT SUN AUG 28 2016

UTZ001>011-023>025-290600-

NORTHERN UTAH

CITY           SKY/WX    TMP DP  RH WIND       PRES   REMARKS
BRIGHAM CITY     N/A     69  39  34 CALM      30.17S
HILL AFB       CLEAR     71  31  22 E12       30.19S
LOGAN          CLEAR     67  41  38 SW5       30.19R
OGDEN          CLEAR     71  33  24 S8        30.17R
PROVO AIRPORT  CLEAR     64  48  55 SE3       30.18S
SALT LAKE CITY CLEAR     75  32  20 S7        30.15S
VERNAL         CLEAR     64  40  41 W3        30.21R
WENDOVER       CLEAR     72  30  21 CALM      30.16R
HEBER CITY     CLEAR     57  34  41 E6        30.26S
WEST JORDAN    CLEAR     67  33  28 CALM      30.20R

$$

UTZ012>022-026-027-290600-

SOUTHERN/CENTRAL UTAH

CITY           SKY/WX    TMP DP  RH WIND       PRES   REMARKS
BLANDING       PTCLDY    60  46  57 N9        30.34F
BRYCE CANYON   CLEAR     51  46  83 W7        30.41S
CEDAR CITY     CLEAR     66  46  48 SE8       30.25S
MILFORD        CLEAR     66  29  24 W10       30.19S
MOAB/CYNLANDS  CLEAR     71  41  33 CALM      30.16S
PRICE          CLEAR     72  36  26 NE12      30.28R
ST GEORGE      CLEAR     77  55  47 S5        30.08S

$$

REGIONAL REPORTS     COLORADO/ARIZONA

CITY           SKY/WX    TMP DP  RH WIND       PRES   REMARKS
CRAIG, CO      CLOUDY    58  40  51 E8        30.32R
GRAND JUNCTION CLOUDY    67  44  43 S14       30.24S
RIFLE          CLOUDY    61  50  67 SW3       30.29F
MONTROSE       CLOUDY    61  45  55 SE12      30.33S
CORTEZ         CLOUDY    52  47  83 SE3       30.27S
PAGE, AZ       CLEAR     74  43  32 SW5       30.15F
GRAND CANYON   CLEAR     53  48  83 CALM      30.34F
KINGMAN        CLEAR     73  52  47 SE9       30.11R
FLAGSTAFF      CLEAR     50  45  83 CALM      30.35S

$$

REGIONAL REPORTS    NEVADA/IDAHO/WYOMING

CITY           SKY/WX    TMP DP  RH WIND       PRES   REMARKS
LAS VEGAS, NV  CLEAR     89  45  21 SW5       29.97S
ELY            CLEAR     60  24  25 SE5       30.29R
ELKO           CLEAR     64  26  23 NE3       30.20S
POCATELLO, ID  CLEAR     65  33  30 S9        30.19S
BURLEY         PTCLDY    58  45  62 S6        30.15R
EVANSTON, WY   CLEAR     65  28  24 CALM      30.37S
ROCK SPRINGS   CLEAR     64  22  20 S3        30.31R

$$




USA.gov is the U.S. government's official web portal to all federal, state and local government web resources and services.